Torna al catalogo

STARLINK-6211

AttivoComunicazioniVLEO
NORAD 57059·PAYLOAD·🇺🇸 United States

Lanciato Jun 22, 2023 da Vandenberg Space Force Base

Loading…

Prossimi Passaggi (prossime 24 ore)

TLE

AggiornatoSource: CelesTrak SupGP

Epoca: Sep 14, 2026, 21:08 UTC

1 57059C 23088M   26257.88104167 -.00010801  00000+0 -39130-3 0  2571
2 57059  42.9995 121.8590 0001739 257.4408 359.7590 15.27577391    18

Traccia STARLINK-6211 in tempo reale con AllMySat

Download on the App Store